This is the latest recevied weather packets stored in our database for station/object WE8M. If no packets are shown the sender has not sent any weather packets the latest 10 day(s).
| Time | Temp. | Humidity | Pressure | Rain* | Wind** | Luminosity | Snow |
|---|---|---|---|---|---|---|---|
| 1777819739 | 12.78° C | 51% | 1020 hPa | 0 mm | - | - | - |
| 1777819438 | 12.78° C | 50% | 1020 hPa | 0 mm | - | - | - |
| 1777819135 | 12.78° C | 53% | 1019.9 hPa | 0 mm | - | - | - |
| 1777818832 | 12.22° C | 49% | 1019.9 hPa | 0 mm | - | - | - |
| 1777818528 | 12.22° C | 51% | 1019.9 hPa | 0 mm | - | - | - |
| 1777818226 | 12.22° C | 53% | 1020 hPa | 0 mm | - | - | - |
| 1777817921 | 12.22° C | 50% | 1019.8 hPa | 0 mm | - | - | - |
| 1777817619 | 11.67° C | 51% | 1019.8 hPa | 0 mm | - | - | - |
| 1777817315 | 11.11° C | 52% | 1020 hPa | 0 mm | - | - | - |
| 1777817013 | 11.11° C | 53% | 1019.9 hPa | 0 mm | - | - | - |
| 1777816708 | 11.11° C | 56% | 1019.8 hPa | 0 mm | - | - | - |
| 1777816406 | 11.11° C | 54% | 1019.9 hPa | 0 mm | - | - | - |
| 1777816104 | 10.56° C | 58% | 1020 hPa | 0 mm | - | - | - |
| 1777815801 | 10° C | 59% | 1020 hPa | 0 mm | - | - | - |
| 1777815499 | 10° C | 58% | 1020.1 hPa | 0 mm | - | - | - |
| 1777815196 | 9.44° C | 58% | 1020.2 hPa | 0 mm | - | - | - |
| 1777814892 | 9.44° C | 61% | 1020.1 hPa | 0 mm | - | - | - |
| 1777814588 | 8.89° C | 63% | 1020 hPa | 0 mm | - | - | - |
| 1777814286 | 8.33° C | 67% | 1019.9 hPa | 0 mm | - | - | - |
| 1777813982 | 8.33° C | 66% | 1020 hPa | 0 mm | - | - | - |
| 1777813680 | 7.78° C | 67% | 1020.1 hPa | 0 mm | - | - | - |
| 1777813377 | 7.78° C | 68% | 1020.2 hPa | 0 mm | - | - | - |
| 1777813074 | 7.22° C | 71% | 1020.2 hPa | 0 mm | - | - | - |
| 1777812772 | 7.22° C | 68% | 1020.3 hPa | 0 mm | - | - | - |
| 1777812468 | 6.67° C | 71% | 1020.1 hPa | 0 mm | - | - | - |
* Rain latest hour (hover to see other rain measurements)
** Current wind speed in m/s (hover to see current wind gust speed)